Location: Doschendorf
(50.0069°N, 11.0602°E)
Time: 08:19:18
(UTC+00:00)

NOAA 12 - Pass Details

Date: 26 February 2020
Orbit: 795 x 815 km, 98.5° (Epoch: 04 April)

Event Time Altitude Azimuth Distance (km) Brightness Sun altitude
Rises 04:52:03 0° 24° (NNE) 3,355 7.7 -12.7°
Reaches altitude 10° 04:54:54 10° 39° (NE) 2,417 7.2 -12.3°
Maximum altitude 04:59:06 23° 91° (E) 1,671 6.8 -11.6°
Drops below altitude 10° 05:03:16 10° 143° (SE) 2,397 7.1 -10.9°
Sets 05:06:04 0° 158° (SSE) 3,320 7.6 -10.5°
